This is the latest recevied weather packets stored in our database for station/object KF0PEC-13. If no packets are shown the sender has not sent any weather packets the latest 10 day(s).
| Time | Temp. | Humidity | Pressure | Rain* | Wind** | Luminosity | Snow |
|---|---|---|---|---|---|---|---|
| 1777477515 | 5° C | 81% | 1022.3 hPa | 0 mm | - | - | - |
| 1777476327 | 5° C | 83% | 1022.2 hPa | 0 mm | - | - | - |
| 1777475119 | 4.44° C | 83% | 1022.3 hPa | 0 mm | - | - | - |
| 1777471516 | 4.44° C | 84% | 1022.6 hPa | 0 mm | - | - | - |
| 1777470932 | 3.89° C | 84% | 1022.4 hPa | 0 mm | - | - | - |
| 1777470328 | 3.89° C | 84% | 1022.5 hPa | 0 mm | - | - | - |
| 1777466121 | 3.89° C | 83% | 1022.3 hPa | 0 mm | - | - | - |
| 1777464933 | 3.89° C | 84% | 1022.3 hPa | 0 mm | - | - | - |
| 1777448730 | 5.56° C | 85% | 1022.8 hPa | 0.25 mm | - | - | - |
| 1777445730 | 6.11° C | 80% | 1023.4 hPa | 0 mm | - | - | - |
| 1777445126 | 6.67° C | 78% | 1023.5 hPa | 0 mm | - | - | - |
| 1777439732 | 8.33° C | 55% | 1022.9 hPa | 0 mm | - | - | - |
| 1777437316 | 9.44° C | 52% | 1022.3 hPa | 0 mm | - | - | - |
| 1777435544 | 10° C | 50% | 1022.2 hPa | 0 mm | - | - | - |
| 1777434317 | 10° C | 51% | 1022.2 hPa | 0 mm | - | - | - |
| 1777431317 | 10.56° C | 50% | 1021 hPa | 0 mm | - | - | - |
| 1777427735 | 11.11° C | 47% | 1019.8 hPa | 0 mm | - | - | - |
| 1777425922 | 11.67° C | 47% | 1019.2 hPa | 0 mm | - | - | - |
| 1777417527 | 12.78° C | 49% | 1017.1 hPa | 0 mm | - | - | - |
| 1777416320 | 12.78° C | 50% | 1016.9 hPa | 0 mm | - | - | - |
| 1777415132 | 12.78° C | 50% | 1016.8 hPa | 0 mm | - | - | - |
| 1777412716 | 12.78° C | 48% | 1017 hPa | 0 mm | - | - | - |
| 1777411528 | 14.44° C | 44% | 1016.6 hPa | 0 mm | - | - | - |
| 1777410925 | 14.44° C | 41% | 1016.7 hPa | 0 mm | - | - | - |
| 1777409153 | 14.44° C | 41% | 1016.7 hPa | 0 mm | - | - | - |
* Rain latest hour (hover to see other rain measurements)
** Current wind speed in m/s (hover to see current wind gust speed)